SCP
1 1 1 1 2 2 2 2 2 2 2 2 2 2 2 1 1 1 1 1 1 1 1 1 1 1 1 1 1 1 1 1 1 1 1 1 1 1 1 1 1 1 1
1 1 1 2 2 2 3 2 2 2 2 2 2 2 2 2 2 1 1 1 1 1 1 1 1 1 1 1 1 1 2 1 2 2 2 1 1 1 1 2 2 1 1
1 2 2 2 2 3 3 3 3 2 2 2 2 2 3 3 3 2 2 1 1 1 1 1 1 1 1 1 1 1 2 1 2 2 2 2 2 2 2 2 2 2 2
1 2 2 3 3 3 3 3 3 3 2 2 2 2 3 4 4 3 2 2 2 1 1 1 1 1 1 1 1 1 1 1 2 2 2 2 2 2 2 2 2 2 3
2 2 3 3 2 2 3 3 4 4 3 2 2 2 3 4 4 3 3 2 2 2 1 1 1 1 1 2 1 1 1 2 2 2 3 3 3 3 2 2 2 2 2
2 3 3 3 2 2 2 3 4 5 4 3 2 2 3 3 3 2 2 2 2 2 2 1 1 2 2 2 2 2 2 2 3 3 4 4 4 4 3 2 2 2 2
3 3 3 3 3 3 3 4 6 6 4 3 3 2 2 2 2 2 2 2 2 2 2 2 2 2 2 2 2 3 3 3 4 4 5 5 5 5 5 4 4 3 3
3 3 2 3 3 3 4 6 7 6 5 4 3 3 2 2 1 2 2 2 1 1 1 1 1 2 2 3 3 4 4 4 5 6 6 6 6 6 6 6 6 5 5
3 2 2 3 4 4 5 7 7 6 5 4 4 4 3 2 1 2 2 2 2 2 1 1 2 2 3 3 3 3 4 4 5 6 7 7 7 7 8 8 8 8 7
3 3 3 3 4 5 6 7 7 7 5 4 4 4 3 2 2 2 3 3 3 3 2 2 2 3 3 3 3 3 3 4 5 6 7 8 9 9 10 10 10 10 8
4 4 4 5 5 6 7 8 9 8 7 5 5 4 3 3 3 4 4 5 5 5 4 3 3 3 3 3 3 3 3 4 5 6 7 8 8 9 10 11 10 10 9
4 4 5 5 6 7 8 10 10 9 8 7 7 6 5 5 5 5 5 5 5 5 4 4 4 3 3 3 3 3 3 4 4 5 5 6 7 8 8 9 9 8 8
3 4 4 5 6 6 7 8 9 9 9 9 8 8 7 7 6 6 5 5 5 5 5 5 5 5 5 5 5 5 5 5 4 4 5 5 6 6 6 6 6 6 6
3 3 4 5 5 6 6 6 7 7 7 7 8 8 8 8 7 7 6 5 5 6 6 6 7 7 7 6 6 6 6 6 6 6 6 6 6 5 4 4 4 4 5
3 3 4 5 5 6 6 6 5 5 6 7 7 8 10 10 10 8 6 5 6 6 7 7 7 8 8 7 6 6 7 7 7 7 7 6 5 4 3 2 2 3 3
3 3 4 4 5 6 6 6 6 6 8 8 9 11 13 13 11 8 6 5 5 6 7 7 6 7 7 6 5 6 7 8 9 9 8 5 3 3 2 2 1 2 2
3 3 4 4 5 6 7 7 8 10 10 10 10 10 11 10 8 6 5 5 5 6 6 6 6 5 5 4 3 4 7 10 10 8 6 3 2 2 2 2 1 1 1
4 5 5 5 6 7 8 9 10 11 11 10 8 8 8 7 7 6 6 6 5 5 6 6 6 5 5 3 2 3 6 9 8 5 3 2 2 2 3 2 2 2 2
5 6 6 5 6 7 9 10 11 11 10 9 8 8 7 8 8 8 7 6 6 6 6 6 6 6 5 3 1 2 4 5 4 3 2 2 2 2 2 2 2 2 3
6 7 7 6 6 7 8 9 10 10 10 10 9 8 8 8 9 9 8 8 8 7 7 6 6 7 6 3 1 2 3 3 3 3 3 2 2 1 1 2 3 3 3
6 7 7 5 4 5 5 7 8 9 9 10 10 9 7 7 7 7 8 9 10 9 8 7 6 6 5 3 2 2 3 3 3 3 3 3 1 1 1 1 2 2 2
5 6 7 5 3 3 4 5 6 7 7 10 11 10 8 7 7 8 9 11 12 10 8 7 6 5 4 4 2 2 2 4 4 4 3 2 1 0 0 1 1 1 1
4 6 7 5 3 3 3 4 5 5 5 7 11 12 10 9 10 10 10 10 11 10 9 7 6 5 5 4 3 1 1 3 5 4 2 1 0 0 0 0 0 0 0
4 7 9 8 4 3 3 4 4 4 4 5 9 12 10 9 9 9 8 8 8 9 8 8 8 7 7 5 3 2 1 2 4 4 2 0 0 0 0 0 0 0 0
4 8 12 9 5 4 4 4 4 4 3 4 7 11 11 9 8 7 6 6 6 6 6 7 8 8 8 5 3 2 1 2 3 3 2 1 0 0 0 0 0 1 1
5 10 13 10 6 4 4 4 4 3 3 4 6 10 12 10 8 7 6 5 5 4 5 6 7 8 7 5 2 1 1 1 2 2 2 1 0 0 0 0 1 1 1
Wind_Speed
13 12 11 11 10 10 10 9 9 8 6 5 5 5 5 4 4 3 4 4 3 3 3 2 3 3 2 2 3 2 3 3 2 2 2 2 3 2 2 3 3 3 3
13 13 13 12 12 12 11 10 10 9 8 6 5 4 4 4 4 3 4 4 3 3 4 3 3 3 2 3 3 3 3 3 2 3 3 2 3 3 2 3 3 3 3
14 14 14 14 13 12 12 10 11 10 10 8 6 5 4 4 4 5 4 4 4 4 3 3 3 2 4 3 4 4 4 3 3 3 3 3 1 1 3 3 2 2 3
14 14 15 15 14 13 12 12 11 11 10 9 8 8 6 5 5 4 4 5 5 4 4 4 3 3 4 3 5 4 4 4 4 3 3 4 3 3 2 3 2 2 3
14 15 16 15 14 14 13 12 12 11 11 11 10 9 7 6 5 4 5 4 5 5 5 4 4 4 3 3 4 3 4 4 4 3 3 3 3 5 4 3 2 2 2
13 13 14 14 14 14 13 13 12 12 12 12 11 10 8 7 6 6 5 5 4 4 5 5 4 4 3 3 4 4 5 4 4 4 3 3 3 4 4 4 4 3 2
11 12 14 14 15 15 15 14 14 13 12 12 11 10 10 9 8 7 6 6 5 4 5 4 4 3 3 3 3 4 4 4 4 4 4 3 3 4 4 4 4 4 3
9 11 13 13 14 15 15 15 14 13 12 12 11 10 10 8 7 7 6 6 4 4 4 4 4 4 4 4 3 4 3 3 4 4 4 3 3 4 4 4 4 5 4
7 8 10 12 12 14 14 14 14 13 12 12 11 10 10 8 7 7 7 5 4 4 5 5 5 4 4 4 4 3 3 3 4 4 4 4 3 3 3 4 4 5 5
6 8 8 10 11 12 12 13 13 12 12 12 11 9 10 9 8 7 7 6 5 4 5 5 5 4 4 4 4 4 3 4 4 3 3 4 3 3 3 4 4 4 5
4 6 7 8 9 10 11 12 12 12 11 11 10 10 9 9 8 7 7 7 6 6 6 5 5 5 4 4 4 4 4 4 4 4 4 4 4 4 3 4 4 4 4
3 4 6 7 8 9 10 11 11 12 11 11 10 10 9 9 9 8 8 7 7 7 6 6 6 5 5 4 4 5 4 5 5 4 4 5 4 4 5 4 4 4 4
2 4 5 6 7 8 9 9 10 10 10 10 10 10 10 9 9 8 8 7 7 7 6 6 6 5 5 5 5 5 5 5 5 5 5 5 5 5 4 5 5 4 4
2 3 4 5 6 6 7 8 8 9 9 10 10 10 10 10 9 8 8 8 7 7 7 6 6 6 6 6 5 5 5 5 5 5 5 5 6 6 5 5 5 5 5
3 4 4 5 6 6 7 7 8 8 9 10 10 10 9 9 8 8 8 8 8 8 7 7 7 7 6 6 5 6 6 5 6 5 5 5 4 4 5 5 4 5 5
4 4 5 6 6 6 7 7 7 8 8 9 9 9 9 9 8 8 8 8 8 8 7 8 7 8 6 3 4 6 6 6 6 5 5 4 5 3 4 4 4 5 6
4 4 4 5 5 6 6 6 6 7 8 8 8 9 9 8 8 8 8 8 8 7 8 8 8 7 5 4 4 6 7 6 6 5 5 5 2 4 3 4 5 5 5
2 2 3 3 4 4 5 5 5 6 7 8 8 8 8 8 7 7 7 7 6 6 6 7 7 7 6 5 6 6 7 6 5 5 5 4 4 3 3 4 4 4 4
1 1 2 2 3 4 4 5 4 5 6 7 7 7 7 7 7 7 7 6 5 5 6 6 6 6 5 5 6 6 6 5 5 5 4 4 4 1 2 3 4 4 4
0 0 1 2 2 3 3 4 4 4 4 5 6 6 6 6 6 6 5 5 5 5 5 4 5 5 4 4 5 6 5 4 4 3 3 1 1 0 1 3 4 4 4
1 1 1 2 2 2 3 3 3 3 3 3 4 5 5 5 5 5 5 5 5 4 4 4 3 3 3 4 4 5 4 4 4 2 2 1 3 2 1 3 3 3 4
2 2 2 2 2 2 2 3 2 2 2 3 4 4 4 4 4 4 4 4 4 5 4 3 3 2 2 2 3 4 4 4 3 2 1 1 3 2 1 1 1 2 4
2 2 2 3 2 2 2 2 2 2 2 3 3 4 4 4 4 4 4 4 4 4 3 3 3 2 2 2 3 4 3 2 2 0 3 2 2 2 2 2 3 4 3
2 3 3 3 2 2 2 1 2 2 3 3 3 3 4 4 4 3 3 3 3 3 3 3 3 2 2 2 2 3 4 4 3 2 3 4 4 3 1 2 2 3 2
2 2 3 3 3 2 2 1 2 2 3 3 3 3 4 4 4 3 2 2 1 1 2 2 2 2 2 1 2 0 1 1 1 1 2 2 2 1 1 1 1 2 1
2 2 3 3 3 2 2 1 2 3 3 3 3 3 3 3 4 4 4 4 3 4 3 2 0 2 3 4 4 3 3 2 1 2 2 1 1 1 1 1 1 1 2
Wind_Direction
188 185 189 189 185 185 185 189 191 183 187 187 190 186 187 191 184 183 170 179 192 183 204 224 185 226 218 225 224 224 214 230 222 235 234 219 217 218 231 234 242 230 231
189 187 191 191 191 188 189 190 192 188 195 190 194 195 197 197 187 186 167 189 196 207 200 217 226 215 214 222 228 225 244 239 220 244 251 228 198 205 206 215 215 234 234
194 190 193 196 195 193 193 194 194 191 197 192 189 186 185 202 187 187 182 190 200 206 226 213 231 232 234 217 228 228 232 242 235 243 266 274 253 236 191 210 212 226 242
198 195 195 198 197 195 191 193 193 193 192 192 197 196 197 200 192 189 179 186 196 206 203 213 220 235 245 230 234 221 234 243 249 233 240 269 303 276 234 211 200 214 238
200 199 199 198 199 195 191 190 191 193 192 194 196 202 208 204 192 186 179 198 192 204 209 213 221 225 236 238 251 245 243 241 249 253 241 239 239 250 263 261 253 237 235
201 200 198 196 197 193 191 189 188 192 192 194 197 202 205 204 199 194 189 196 193 196 200 208 220 230 235 230 235 235 229 244 254 261 254 250 247 245 249 251 245 245 243
200 196 197 195 194 192 191 190 189 192 192 194 199 201 204 204 205 206 201 209 203 197 199 211 216 231 236 242 246 237 244 233 237 244 249 252 251 260 264 263 261 259 247
200 197 194 193 193 193 192 191 188 189 190 192 197 201 203 206 206 210 216 208 216 209 193 207 217 225 231 235 233 241 230 229 237 242 255 259 254 254 257 263 265 258 248
195 192 190 190 191 194 193 191 187 188 190 192 193 197 202 208 208 202 211 214 213 210 201 210 216 221 225 231 236 240 241 232 237 232 224 242 248 255 259 259 262 269 268
190 187 185 187 189 191 191 190 188 190 191 192 195 194 198 202 205 207 206 210 208 211 213 216 217 218 219 220 230 231 229 238 242 256 261 255 256 254 249 248 251 258 266
180 180 179 182 185 185 185 186 187 190 192 193 194 197 194 196 199 202 204 205 206 202 211 216 219 220 219 219 222 237 232 238 242 246 247 253 263 262 253 247 248 250 258
179 179 176 176 181 185 185 186 188 189 191 189 190 193 192 193 196 198 203 206 207 209 208 211 215 218 216 220 224 235 236 238 243 250 257 259 255 255 261 258 257 256 252
186 182 178 178 181 185 186 186 189 187 186 186 188 191 194 193 196 198 200 205 208 211 212 211 214 220 222 223 228 232 237 239 243 247 251 255 258 260 259 257 257 255 247
208 199 187 185 182 183 185 185 186 184 185 188 189 191 195 195 195 196 198 201 206 211 214 215 217 222 226 226 230 234 236 240 246 252 257 260 258 258 258 252 254 257 255
217 208 200 193 188 186 186 185 186 187 189 190 191 193 193 193 195 197 200 202 205 210 210 215 219 225 226 227 228 236 235 237 243 247 253 259 272 295 280 272 263 258 255
226 220 208 198 198 196 193 185 189 188 189 194 194 192 191 191 195 196 197 201 205 210 209 214 220 228 233 200 224 246 245 243 245 251 253 248 232 232 241 257 277 282 267
234 231 225 211 203 200 194 189 191 190 190 194 194 192 193 195 198 199 198 202 206 209 211 215 220 225 221 200 214 240 248 246 250 250 252 258 254 247 245 223 222 241 253
250 240 228 209 201 195 185 186 184 191 195 195 193 191 193 197 199 203 205 206 207 209 214 218 220 223 215 193 204 227 239 248 250 247 245 249 252 260 265 255 247 245 242
245 250 241 215 184 181 176 175 178 183 192 194 193 193 193 196 198 202 203 204 207 210 217 221 224 227 217 192 201 223 237 240 244 244 241 243 247 344 298 255 252 253 247
202 211 193 168 155 160 164 167 169 171 183 189 189 188 190 191 196 199 199 199 203 212 220 221 228 228 225 195 198 221 237 239 243 234 223 189 221 91 273 244 249 255 263
184 179 149 138 136 147 155 159 160 169 179 182 176 180 183 184 191 190 195 197 200 202 212 212 215 222 221 184 184 219 239 238 241 232 223 146 119 127 230 260 263 274 282
175 167 146 134 133 147 156 157 153 150 159 168 172 179 185 189 181 178 188 194 194 194 196 191 202 196 188 171 179 204 231 262 236 233 226 113 121 142 216 248 289 277 266
177 184 165 147 150 162 170 167 150 157 160 161 166 172 179 184 186 186 184 191 198 202 189 191 195 187 170 143 155 179 199 228 234 167 78 106 153 178 195 199 230 236 247
185 188 172 161 160 163 165 171 161 157 154 156 166 169 170 175 175 185 188 199 199 198 196 196 194 173 160 152 155 170 174 173 181 153 137 163 189 211 172 203 224 247 274
194 190 177 170 169 163 157 170 162 163 162 162 172 175 169 167 166 167 165 194 172 185 206 200 190 181 176 114 73 163 187 211 106 135 195 187 175 187 198 230 256 262 255
201 188 172 163 155 148 153 169 170 170 171 171 179 182 174 167 169 162 146 81 87 90 87 60 207 123 94 112 102 82 72 77 121 231 213 217 253 256 257 270 265 270 280